Change the Weather History Date:

Tuesday, October 2, 2012

  Actual Average (KVPZ) Record (KVPZ)
Temperature  
Mean Temperature 58 °F 57 °F  
Max Temperature 64 °F 68 °F 83 °F (2000)
Min Temperature 51 °F 46 °F 32 °F (2003)
Degree Days  
Heating Degree Days 8 9  
Month to date heating degree days 18  
Since 1 July heating degree days 148  
Cooling Degree Days 0 1  
Month to date cooling degree days 2  
Year to date cooling degree days 704  
Growing Degree Days 8 (Base 50)    
Moisture  
Dew Point 49 °F    
Average Humidity 74    
Maximum Humidity 94    
Minimum Humidity 42    
Precipitation  
Precipitation 0.00 in 0.09 in 1.63 in (2014)
Month to date precipitation 0.19  
Year to date precipitation 28.94  
Sea Level Pressure  
Sea Level Pressure 29.83 in    
Wind  
Wind Speed 7 mph (NNE)    
Max Wind Speed 15 mph    
Max Gust Speed 22 mph    
Visibility 9 miles    
Events Rain    
T = Trace of Precipitation, MM = Missing Value Source: NWS Daily Summary

Daily Weather History Graph

Daily Weather History Graph

Search for Another Location

Airport or City:

Trip Planner

Search our weather history database for the weather conditions in past years. The results will help you decide how hot, cold, wet, or windy it might be!

Date:

Astronomy

Oct. 02, 2012 Rise Set
Actual Time 6:46 AM CDT 6:28 PM CDT
Civil Twilight 6:19 AM CDT 6:55 PM CDT
Nautical Twilight 5:47 AM CDT 7:27 PM CDT
Astronomical Twilight 5:15 AM CDT 7:59 PM CDT
Moon 7:39 PM CDT 9:15 AM CDT
Length of Visible Light 12h 36m
Length of Day
11h 41m
Waning Gibbous, 94% of the Moon is Illuminated
Oct 2
Waning Gibbous
Oct 8
Last Quarter
Oct 15
New
Oct 21
First Quarter
Oct 29
Full

Hourly Weather History & Observations

Time (CDT) Temp. Dew Point Humidity Pressure Visibility Wind Dir Wind Speed Gust Speed Precip Events Conditions
12:15 AM 55.4 °F 44.6 °F 67% 29.80 in 10.0 mi North 5.8 mph - N/A   Overcast
12:35 AM 55.4 °F 44.6 °F 67% 29.79 in 10.0 mi NNE 6.9 mph - N/A   Overcast
12:55 AM 55.4 °F 44.6 °F 67% 29.79 in 10.0 mi North 6.9 mph - N/A   Overcast
1:15 AM 55.4 °F 44.6 °F 67% 29.79 in 10.0 mi North 5.8 mph - N/A   Overcast
2:15 AM 55.4 °F 44.6 °F 67% 29.79 in 10.0 mi NNE 3.5 mph - N/A   Overcast
2:35 AM 55.4 °F 44.6 °F 67% 29.78 in 10.0 mi NNE 5.8 mph - N/A   Overcast
2:55 AM 55.4 °F 44.6 °F 67% 29.78 in 10.0 mi NNE 4.6 mph - N/A   Overcast
3:15 AM 55.4 °F 44.6 °F 67% 29.78 in 10.0 mi NNE 4.6 mph - N/A   Overcast
3:35 AM 55.4 °F 44.6 °F 67% 29.79 in 10.0 mi NNE 4.6 mph - N/A   Overcast
3:55 AM 55.4 °F 44.6 °F 67% 29.80 in 10.0 mi North 4.6 mph - N/A   Overcast
4:15 AM 53.6 °F 46.4 °F 77% 29.79 in 10.0 mi NNE 4.6 mph - N/A   Scattered Clouds
4:35 AM 53.6 °F 46.4 °F 77% 29.80 in 10.0 mi North 4.6 mph - N/A   Mostly Cloudy
4:55 AM 53.6 °F 46.4 °F 77% 29.80 in 10.0 mi North 6.9 mph - N/A   Overcast
5:15 AM 53.6 °F 46.4 °F 77% 29.81 in 10.0 mi North 5.8 mph - N/A   Scattered Clouds
5:35 AM 51.8 °F 46.4 °F 82% 29.81 in 10.0 mi North 5.8 mph - N/A   Scattered Clouds
5:55 AM 51.8 °F 46.4 °F 82% 29.81 in 10.0 mi North 6.9 mph - N/A   Mostly Cloudy
6:15 AM 53.6 °F 46.4 °F 77% 29.82 in 10.0 mi North 6.9 mph - N/A   Mostly Cloudy
6:35 AM 53.6 °F 46.4 °F 77% 29.82 in 10.0 mi North 5.8 mph - N/A   Overcast
6:55 AM 53.6 °F 46.4 °F 77% 29.82 in 10.0 mi North 8.1 mph - N/A   Overcast
7:15 AM 53.6 °F 46.4 °F 77% 29.83 in 10.0 mi North 6.9 mph - N/A   Overcast
7:35 AM 53.6 °F 46.4 °F 77% 29.83 in 10.0 mi North 9.2 mph - N/A   Overcast
7:55 AM 55.4 °F 46.4 °F 72% 29.83 in 10.0 mi NNE 6.9 mph - N/A   Overcast
8:15 AM 55.4 °F 46.4 °F 72% 29.84 in 10.0 mi NNE 5.8 mph - N/A   Overcast
8:35 AM 59.0 °F 46.4 °F 63% 29.84 in 10.0 mi NNE 10.4 mph - N/A   Overcast
8:55 AM 59.0 °F 46.4 °F 63% 29.83 in 10.0 mi NNE 10.4 mph 17.3 mph N/A   Scattered Clouds
9:15 AM 59.0 °F 46.4 °F 63% 29.83 in 10.0 mi NNE 8.1 mph 19.6 mph N/A   Mostly Cloudy
9:35 AM 60.8 °F 44.6 °F 55% 29.83 in 10.0 mi NE 15.0 mph - N/A   Mostly Cloudy
9:55 AM 60.8 °F 42.8 °F 52% 29.84 in 10.0 mi NE 12.7 mph 17.3 mph N/A   Overcast
10:15 AM 62.6 °F 41.0 °F 45% 29.83 in 10.0 mi NE 12.7 mph - N/A   Overcast
10:35 AM 62.6 °F 39.2 °F 42% 29.83 in 10.0 mi NE 15.0 mph 21.9 mph N/A   Overcast
10:55 AM 62.6 °F 39.2 °F 42% 29.83 in 10.0 mi NNE 13.8 mph 19.6 mph N/A   Overcast
11:15 AM 64.4 °F 41.0 °F 42% 29.83 in 10.0 mi NE 12.7 mph - N/A   Overcast
11:35 AM 64.4 °F 41.0 °F 42% 29.83 in 10.0 mi NNE 10.4 mph 17.3 mph N/A   Overcast
11:55 AM 64.4 °F 41.0 °F 42% 29.83 in 10.0 mi NNE 11.5 mph - N/A   Overcast
12:15 PM 64.4 °F 42.8 °F 45% 29.83 in 10.0 mi NNE 11.5 mph 17.3 mph N/A   Overcast
12:35 PM 64.4 °F 44.6 °F 49% 29.83 in 10.0 mi NNE 13.8 mph 17.3 mph N/A   Overcast
12:55 PM 64.4 °F 46.4 °F 52% 29.83 in 10.0 mi NE 13.8 mph 20.7 mph N/A   Overcast
1:15 PM 60.8 °F 46.4 °F 59% 29.83 in 10.0 mi NNE 11.5 mph 17.3 mph N/A Rain Light Rain
1:35 PM 59.0 °F 51.8 °F 77% 29.82 in 7.0 mi NNE 11.5 mph - N/A   Heavy Drizzle
1:55 PM 59.0 °F 53.6 °F 82% 29.82 in 10.0 mi NNE 6.9 mph - N/A   Drizzle
2:15 PM 59.0 °F 53.6 °F 82% 29.82 in 10.0 mi NNE 9.2 mph - N/A   Drizzle
2:35 PM 60.8 °F 55.4 °F 82% 29.82 in 10.0 mi NE 6.9 mph - N/A   Overcast
3:15 PM 59.0 °F 55.4 °F 88% 29.82 in 10.0 mi ENE 6.9 mph - N/A   Overcast
3:35 PM 59.0 °F 55.4 °F 88% 29.82 in 10.0 mi NE 6.9 mph - N/A   Overcast
3:55 PM 59.0 °F 55.4 °F 88% 29.82 in 10.0 mi NE 5.8 mph - N/A   Overcast
4:15 PM 60.8 °F 55.4 °F 82% 29.83 in 10.0 mi NE 5.8 mph - N/A   Overcast
4:35 PM 60.8 °F 55.4 °F 82% 29.83 in 10.0 mi NE 6.9 mph - N/A   Overcast
4:55 PM 60.8 °F 55.4 °F 82% 29.83 in 10.0 mi NE 5.8 mph - N/A   Overcast
5:15 PM 60.8 °F 55.4 °F 82% 29.84 in 10.0 mi NE 3.5 mph - N/A   Overcast
5:35 PM 59.0 °F 55.4 °F 88% 29.85 in 5.0 mi NE 9.2 mph - N/A Rain Light Rain
5:55 PM 57.2 °F 55.4 °F 94% 29.85 in 2.5 mi NE 9.2 mph - N/A   Drizzle
6:15 PM 57.2 °F 55.4 °F 94% 29.85 in 4.0 mi NE 9.2 mph - N/A   Drizzle
6:35 PM 57.2 °F 55.4 °F 94% 29.85 in 7.0 mi NNE 8.1 mph 16.1 mph N/A   Drizzle
6:55 PM 57.2 °F 55.4 °F 94% 29.86 in 10.0 mi NNE 6.9 mph - N/A Rain Light Rain
7:15 PM 57.2 °F 55.4 °F 94% 29.86 in 7.0 mi NNE 6.9 mph - N/A Rain Rain
7:35 PM 59.0 °F 55.4 °F 88% 29.87 in 10.0 mi NNE 8.1 mph - N/A   Light Drizzle
8:15 PM 57.2 °F 55.4 °F 94% 29.88 in 5.0 mi ENE 4.6 mph - N/A Rain Rain
8:35 PM 57.2 °F 55.4 °F 94% 29.88 in 7.0 mi NNE 5.8 mph - N/A   Overcast
9:15 PM 57.2 °F 55.4 °F 94% 29.89 in 7.0 mi NNE 5.8 mph - N/A   Overcast
9:35 PM 57.2 °F 55.4 °F 94% 29.89 in 7.0 mi NNE 5.8 mph - N/A   Overcast
9:55 PM 57.2 °F 55.4 °F 94% 29.89 in 7.0 mi NNE 5.8 mph - N/A   Overcast
10:15 PM 59.0 °F 55.4 °F 88% 29.89 in 7.0 mi NE 4.6 mph - N/A   Overcast
10:35 PM 59.0 °F 55.4 °F 88% 29.88 in 7.0 mi NNE 4.6 mph - N/A   Overcast
10:55 PM 59.0 °F 55.4 °F 88% 29.89 in 7.0 mi ENE 3.5 mph - N/A   Overcast
11:15 PM 59.0 °F 55.4 °F 88% 29.89 in 7.0 mi NE 5.8 mph - N/A   Overcast
11:35 PM 59.0 °F 55.4 °F 88% 29.89 in 7.0 mi NE 4.6 mph - N/A   Overcast
11:55 PM 59.0 °F 55.4 °F 88% 29.88 in 7.0 mi NE 4.6 mph - N/A   Overcast